Погода в Таре

Погода в Таре : погода сейчас, прогноз погоды и архив. Всё, что Вы хотите узнать о погоде в Таре!

Хотите узнать прогноз погоды в Таре? Тогда Вам сюда: Погода в Таре

Поиск расширенной информации на нашем сайте:

Другие новости

Новости СМИ2

Главная страница сайта

Новости сайта

03.07.2017

Напоминаем, что на нашем специализированном сайте Метеоцентр.Азия вы можете получить высокодетализированные автоматические прогнозы погоды по пунктам России, СНГ и мира в авиационном формате (включающие направление и скорость ветра, видимость, явления погоды, количество и форму облачности, нижнюю и верхнюю границу облачности).

Рекомендуем: планировка таунхаусов

Погода в Таре - сегодня

Время (UTC), дата Ветер
(°,м/с) 
Видим.   Явления Облачность Т
(°С)
Тd
(°С)
f(%) Тe
(°С)
Pmin
(гПа)
dP
(гПа)
Po
(мм)
O2
(г/м3)
Тmin Tmax R s Состояние
почвы
00 20.08.17 170 (Ю) 20000 м    9/0 средняя 
[Ac und]
+8.8 +7.8 93 +10  1021.2  -0.4  759  295           
03 20.08.17 240 (ЮЗ) 20000 м  {ливн. осадки}  9/0 средняя, верхняя 
[Ac lent|Ci sp]
+13.6 +10.2 80 +15  1021.2  0.2  759  290  +7.2    0.0     
06 20.08.17 310 (СЗ) 20000 м  {ливн. осадки}  9/5 600 м верхняя 
[Cu med, cong|Ci sp]
+19.5 +11 58 +22  1020.6  -0.4  759  283           
09 20.08.17 320 (СЗ) 20000 м    9/6 600 м верхняя 
[Cu med, cong|Ci sp]
+20.6 +9.2 48 +21  1020.2  -0.4  759  283           
12 20.08.17 330 (СЗ) 20000 м    8/5 600 м верхняя 
[Cu med, cong|Ci sp]
+21.2 +9 46 +21  1020  -0.2  759  282           
15 20.08.17 тихо ()   20000 м    ясно 
+13.1 +11 87 +15  1021  0.8  759  290    +21.7       
18 20.08.17 210 (ЮЗ) 10 км  местами туман поземный  ясно 
+9.2 +8.1 93 +10  1021.8  0.6  760  295           
21 20.08.17 тихо ()   10 км    ясно 
+7.1 +6.1 93 +7  1021.7  0.1  760  297           
00 21.08.17 тихо ()   20000 м    10/0 средняя, верхняя 
[Ac trans|Ci]
+6.9 +6 94 +7  1022.3  0.6  760  298           
03 21.08.17 тихо ()   20000 м    8/0 средняя 
[Ac trans]
+14.9 +11.6 81 +18  1022.8  0.7  761  288  +6.6         
06 21.08.17 230 (ЮЗ) 20000 м    9/0 средняя 
[Ac As]
+20.8 +9.6 49 +21  1022.5  -0.2  760  283           
09 21.08.17 230 (ЮЗ) 20000 м    9/8 600 м верхняя 
[Cu hum|Ci fib]
+24 +12.2 48 +28  1021.5  -0.9  760  279           
12 21.08.17 210 (ЮЗ) 20000 м  {ливн. осадки}  9/3 600 м кучево-дожд., средняя, верхняя 
[Cb cap|Ac trans|Ci fib]
+22.5 +13.3 56 +28  1021.2  -0.3  760  280           
18 21.08.17 190 (Ю) 10 км    4/0 средняя 
[Ac trans]
+14.6 +13.5 93 +22  1021.3  0.1  759  288           
21 21.08.17 тихо ()   10 км    9/0 средняя 
[Ac As]
+13.6 +12.6 94 +18  1021.2  0.1  759  289           
00 22.08.17 170 (Ю) 20000 м  местами туман поземный  9/0 средняя, верхняя 
[Ac lent|Ci sp]
+12.6 +11.6 94 +17  1021.1  -0.2  759  290           
03 22.08.17 260 (З) 20000 м    3/0 верхняя 
[Ci sp]
+19.2 +14.9 76 +29  1021.3  0.4  760  283  +12.1         
06 22.08.17 290 (З) 20000 м    10/3 600 м верхняя 
[Cu med, cong|Cs]
+23.4 +14.2 56 +30  1020.8  -0.4  759  279           
09 22.08.17 280 (З) 20000 м    10/4 600 м кучево-дожд., средняя, верхняя 
[Cb cap|Ac lent|Ci sp]
+24.5 +15 55 +33  1020.1  -0.6  759  277           
12 22.08.17 300 (СЗ) 20000 м    6/3 600 м верхняя 
[Cu hum|Ci fib]
+24.7 +16 58 +35  1019.9  -0.2  759  277           
15 22.08.17 310 (СЗ) 20000 м    ясно 
+20.8 +15.8 73 +31  1021  759  281    +25.1       
18 22.08.17 тихо ()   10 км    ясно 
+14.9 +13.6 92 +21  1022.6  1.3  760  288           
21 22.08.17 тихо ()   10 км  туман поземный  ясно 
+12.6 +11.6 94 +16  1023.7  761  291           
00 23.08.17 тихо ()   20000 м    8/0 средняя 
[Ac lent]
+11.4 +10.4 94 +13  1024.6  0.9  762  293           
03 23.08.17 160 (Ю) 20000 м    10/3 600 м средняя, верхняя 
[Cu med, cong|Ac cast|Ci fib]
+18.6 +15.6 83 +29  1025.7  1.3  763  284  +11.1         
Время (UTC), дата Ветер
(°,м/с) 
Видим.   Явления Облачность Т
(°С)
Тd
(°С)
f(%) Тe
(°С)
Pmin
(гПа)
dP
(гПа)
Po
(мм)
O2
(г/м3)
Тmin Tmax R s Состояние
почвы

Для получения пояснительной информации подведите курсор к названию столбца.

ПОГОДА в Таре - архив

Всё, что Вы хотите узнать о погоде в Таре - удобно и подробно!

Выберите нужную дату (начиная с 1 января 2015* года) и нажмите кнопку "Найти".
Будут отображены архивные сводки погоды по пункту Тара, начиная с указанной даты.


Отображать данные в формате CSV (для использования в таблицах Excel)


Внимание! Наш архив погоды предназначен исключительно для личного некоммерческого использования в познавательных целях. Если Вам необходимы официальные справки о состоянии погоды (для производственных, юридических, коммерческих и т.п. целей), обращайтесь в органы Росгидромета.

*Примечание: данная дата относится к архиву по метеостанциям СССР (Россия, СНГ, Балтия).
Архив по метеостанциям Зарубежной Европы и Азии (кроме Китая) хранится 10 дней, по другим регионам земного шара (Китай, Африка, Америка, Австралия, Океания) - 1 день.

Тара - район местоположения метеостанции


Название, широта, долгота, высота метеостанции:
Тара 56.9°ш. 74.4°д. 73 м над ур. моря [Российская Федерация]

Дополнительная информация

В oтличие oт бoльшинства пoгoдных сайтoв мы публикуем пoдрoбную метеoинфoрмацию в детальнoм прoфессиoнальнoм фoрмате.

Характеристики температуры и влажнoсти вoздуха измеряются на высoте 2 м в тени вдали oт зданий и деревьев.
Скoрoсть ветра измеряется на высoте 10 м (на урoвне рoста челoвека скoрoсть ветра ниже в 1.5-2 раза). Если метеoстанция нахoдится в гoрoде или в лесу, тo скoрoсть ветра занижена на 2-4 м/с пo сравнению с oткрытым местoм. Скoрoсть ветра над акватoриями крупных рек и oзёр, а также на вершинах хoлмoв на 2-5 м/с выше, чем в oбычных услoвиях.
Атмoсфернoе давление в разных тoчках местнoсти мoжет значительнo oтличаться oт давления на метеoстанции, в зависимoсти oт услoвий рельефа (при пoдъёме на 10 м давление пoнижается примернo на 1 мм рт.ст.).